Meteo Giornale » Osservazioni meteo Francia » Parigi-Orly

ore: 12:30 - Osservazioni Meteo Parigi-Orly
Lat. 48° 44' N Lon. 2° 24' E Alt. 89 metri s.l.m.

molto_nuvoloso Europe/Paris

13 °C

Molto Nuvoloso

Temp. 24 Ore

12 °C

16 °C

Nord

3.7 Km/h

Dew point 12 °C

Umidità 93 %

Visibilità  10 Km

Il sole sorge alle ore 08:12

Il sole tramonta alle ore 18:59

Data e Ora Cielo e Fenomeni T °C DP °C Um. % Pres. hPa Vis. km Vento km/h
Oggi h: 12:30 molto_nuvoloso Molto Nuvoloso 13 12 93 1011 10 N 3.7
Oggi h: 12:00 molto_nuvoloso Molto Nuvoloso 13 12 93 1011 10 S 9.3
Oggi h: 11:30 coperto_pioggia Pioggia Debole 13 12 93 1012 10 S 11.1
Oggi h: 11:00 coperto_pioggia Pioggia Debole Foschia 13 12 93 1011 3 SO 11.1
Oggi h: 10:30 molto_nuvoloso Molto Nuvoloso 13 12 93 1011 10 S/SO 13
Oggi h: 10:00 molto_nuvoloso Molto Nuvoloso 13 12 93 1011 10 S 11.1
Oggi h: 09:30 molto_nuvoloso Molto Nuvoloso 13 12 93 1011 10 S 7.4
Oggi h: 09:00 molto_nuvoloso Molto Nuvoloso 13 12 93 1011 10 N 3.7
Oggi h: 08:30 molto_nuvoloso Molto Nuvoloso 13 12 93 1011 10 S 7.4
Oggi h: 08:00 molto_nuvoloso Molto Nuvoloso 13 12 93 1011 8 S 9.3
Oggi h: 07:30 coperto_pioggia Pioggia Debole 13 12 93 1011 8 S 9.3
Oggi h: 07:00 coperto_pioggia Pioggia Debole 13 12 93 1010 10 S 9.3
Oggi h: 06:00 molto_nuvoloso Molto Nuvoloso 12 11 93 1011 10 S 7.4
Oggi h: 05:30 sereno Sereno 12 11 93 1011 10 S 7.4
Oggi h: 05:00 molto_nuvoloso Molto Nuvoloso 12 11 93 1011 10 S/SO 7.4
Oggi h: 04:30 poco_nuvoloso Poco Nuvoloso 12 11 93 1011 10 S/SO 7.4
Oggi h: 04:00 nuvoloso Nuvoloso 13 11 87 1011 10 O/SO 9.3
Oggi h: 03:30 molto_nuvoloso Molto Nuvoloso 13 12 93 1011 10 O 9.3
Oggi h: 03:00 molto_nuvoloso Molto Nuvoloso 15 12 82 1010 10 O 20.3
Oggi h: 02:30 molto_nuvoloso Molto Nuvoloso 15 12 82 1010 10 SO 18.5
Oggi h: 02:00 molto_nuvoloso Molto Nuvoloso 15 13 87 1009 10 SO 24
Oggi h: 01:30 molto_nuvoloso Molto Nuvoloso 15 13 87 1009 10 SO 22.2
Oggi h: 01:00 molto_nuvoloso Molto Nuvoloso 15 13 87 1009 10 S/SO 27.8
Oggi h: 00:30 molto_nuvoloso Molto Nuvoloso 15 13 87 1009 10 S/SO 29.6
Oggi h: 00:00 coperto_pioggia Pioviggine Leggera 15 13 87 1008 10 S/SO 25.9
Ieri h: 23:30 molto_nuvoloso Molto Nuvoloso 14 12 87 1008 10 S/SO 22.2
Ieri h: 23:00 molto_nuvoloso Molto Nuvoloso 14 13 93 1008 10 S/SO 20.3
Ieri h: 22:30 molto_nuvoloso Molto Nuvoloso 14 13 93 1008 10 S 18.5
Ieri h: 22:00 molto_nuvoloso Molto Nuvoloso 14 12 87 1008 10 S/SO 20.3
Ieri h: 20:30 molto_nuvoloso Molto Nuvoloso 14 13 93 1009 10 S 24
Ieri h: 20:00 coperto_pioggia Pioggia Debole 14 13 93 1009 7 S 22.2
Ieri h: 19:30 coperto_pioggia Pioggia Debole 14 12 87 1009 6 S/SO 25.9
Ieri h: 17:30 coperto_pioggia Pioggia Debole 14 13 93 1009 8 S 20.3
Ieri h: 17:00 coperto_pioggia Pioggia Debole 14 13 93 1009 7 S/SO 24
Ieri h: 16:30 coperto_pioggia Pioggia Debole Foschia 14 13 93 1009 3 S 20.3
Ieri h: 16:00 coperto_pioggia Pioggia Debole Foschia 14 13 93 1009 4 S/SO 27.8
Ieri h: 15:30 coperto_pioggia Pioggia Debole 16 12 77 1009 6 S/SO 24
Ieri h: 15:00 coperto_pioggia Pioggia Debole 16 12 77 1009 7 S/SO 33.3
Ieri h: 14:30 molto_nuvoloso Molto Nuvoloso 16 12 77 1009 10 S/SO 27.8
Ieri h: 14:00 molto_nuvoloso Molto Nuvoloso 16 12 77 1009 10 S/SO 31.5